Tracking 19730 objects as of 27-Jun-2019
HD Live streaming from Space Station
objects crossing your sky now

TITAN 3C TRANSTAGE DEB

Track TITAN 3C TRANSTAGE DEB now!


NORAD ID: 26050
Int'l Code: 1965-108AJ
Perigee: 1,025.8 km
Apogee: 29,827.7 km
Inclination: 26.1 °
Period: 533.8 minutes
Semi major axis: 21797 km
RCS: 0.1424 m2 (medium)
Launch date: December 21, 1965
Source: United States (US)
Launch site: AIR FORCE EASTERN TEST RANGE (AFETR)

Note: This is SATELLITE DEBRIS
aabbcc
Your satellite tracking list
Your tracking list is empty




NASA's NSSDC Master Catalog

Two Line Element Set (TLE):
1 26050U 65108AJ  19176.98481917  .00000016  00000-0  18818-3 0  9990
2 26050  26.1159 135.9250 6606625  53.4330 350.6955  2.69764485197655
Source of the keplerian elements: AFSPC